📊 Raw Sensor Data

Showing records 47301 to 47325 of 85,082 total

ID Distance (ft) Battery V Battery A Int Temp (°F) Int Humid (%) Ext Temp (°F) Solar V RSSI SNR Time Stamp
37794 -- 3.82 0 80 39 75 5.10 -69 9 04/14/2025 12:01 PM
37793 -- 3.82 0 79 38 75 5.10 -70 9 04/14/2025 11:45 AM
37792 -- 3.82 0 78 38 75 5.10 -69 8 04/14/2025 11:30 AM
37791 -- 3.82 0 77 38 75 5.10 -69 9 04/14/2025 11:15 AM
37790 -- 4.08 0 75 39 73 5.10 -69 8 04/14/2025 11:01 AM
37789 -- 3.82 0 73 39 71 5.10 -69 9 04/14/2025 10:45 AM
37788 -- 3.82 0 72 38 70 5.10 -68 9 04/14/2025 10:30 AM
37787 -- 3.82 0 71 38 71 5.10 -69 9 04/14/2025 10:15 AM
37786 -- 3.82 0 69 38 69 5.10 -69 8 04/14/2025 10:00 AM
37785 -- 3.82 0 67 38 68 5.10 -69 8 04/14/2025 09:45 AM
37784 -- 3.83 5 66 38 66 5.10 -69 9 04/14/2025 09:30 AM
37783 -- 3.83 5 64 38 66 5.10 -70 9 04/14/2025 09:15 AM
37782 -- 3.84 0 62 38 64 5.10 -69 8 04/14/2025 09:00 AM
37781 -- 4.01 8 61 37 63 5.10 -69 9 04/14/2025 08:46 AM
37780 -- 3.84 10 59 37 61 5.10 -69 8 04/14/2025 08:30 AM
37779 -- 3.84 9 57 37 61 5.10 -69 8 04/14/2025 08:15 AM
37778 -- 4.08 93 54 38 61 4.50 -69 8 04/14/2025 08:01 AM
37777 -- 3.98 59 51 39 56 4.50 -69 8 04/14/2025 07:45 AM
37776 -- 3.88 22 49 39 57 4.50 -69 8 04/14/2025 07:30 AM
37775 15.6 3.83 15 47 40 53 4.50 -70 8 04/14/2025 07:15 AM
37774 15.5 3.83 0 45 40 51 4.50 -71 8 04/14/2025 07:00 AM
37773 15.6 3.77 -14 44 40 46 4.50 -70 8 04/14/2025 06:45 AM
37772 -- 3.81 -8 44 40 46 1.70 -70 7 04/14/2025 06:30 AM
37771 15.5 3.77 -5 45 40 48 0.40 -69 8 04/14/2025 06:15 AM
37770 -- 3.77 -5 45 41 51 0.10 -70 8 04/14/2025 06:00 AM